Flag for Brazil Weather past 2 weeks in Belo Horizonte, Minas Gerais, Brazil

Now
57 °F

Partly cloudy.


Feels Like: 55 °F
Forecast: 60 / 69 °F
Wind: 10 mph from Southeast

Location: Belo Horizonte Airport

Current Time: Jul 29, 2014 at 7:13:04 AM

Latest Report: Jul 29, 2014 at 6:00 AM


Visibility: N/A

Pressure: 30.33 "Hg

Humidity: 88%

Dew point: 54 °F

Location of Belo HorizonteLocation

Historic Weather in Belo Horizonte — Graph

°F

Belo Horizonte temperature yesterday

Maximum temperature yesterday: 72 °F (at 4:00 PM)
Minimum temperature yesterday: 57 °F (at 3:00 AM)
Average temperature yesterday: 64 °F

Past Weeks' High & Low Weather Summary

 TemperatureHumidityPressure
High81 °F (Jul 18, 1:00 PM)100% (Jul 26, 5:00 AM)30.39 "Hg (Jul 26, 5:00 AM)
Low52 °F (Jul 15, 7:00 AM)30% (Jul 17, 2:00 PM)30.07 "Hg (Jul 25, 4:00 AM)
Average64 °F69%30.24 "Hg
* Reported Jul 14 6:00 AM — Jul 29 6:00 AM, Belo Horizonte, Weather by CustomWeather, © 2014

Note: Actual official high and low records may vary slightly from our data, if they occured in-between our weather recording intervals... More about our weather records

Advertising

Belo Horizonte weather history for previous 24 hours

 ConditionsComfort  
Time TempWeatherWind HumidityBarometerVisibility
6:00 AM
Jul 29
57 °FPartly cloudy.10 mph88%30.33 "HgN/A
5:00 AM57 °FPartly cloudy.6 mph94%30.36 "HgN/A
4:00 AM59 °FPartly cloudy.8 mph88%30.33 "HgN/A
3:00 AM59 °FPartly cloudy.6 mph88%30.36 "HgN/A
2:00 AM61 °FPartly cloudy.8 mph83%30.36 "HgN/A
1:00 AM61 °FPassing clouds.9 mph83%30.39 "HgN/A
12:00 AM63 °FPassing clouds.12 mph77%30.39 "HgN/A
11:00 PM
Jul 28
63 °FPartly cloudy.14 mph77%30.39 "HgN/A
10:00 PM64 °FPassing clouds.13 mph78%30.36 "HgN/A
9:00 PM64 °FPassing clouds.14 mph78%30.36 "HgN/A
8:00 PM66 °FPassing clouds.10 mph73%30.36 "HgN/A
7:00 PM66 °FPassing clouds.10 mph73%30.36 "HgN/A
6:00 PM68 °FPassing clouds.10 mph64%30.33 "HgN/A
5:00 PM70 °FPartly sunny.14 mph60%30.30 "HgN/A
4:00 PM72 °FBroken clouds.13 mph57%30.30 "HgN/A
3:00 PM70 °FBroken clouds.16 mph60%30.30 "HgN/A
2:00 PM70 °FBroken clouds.16 mph60%30.30 "HgN/A
1:00 PM68 °FPartly sunny.14 mph64%30.36 "HgN/A
12:00 PM70 °FPartly sunny.17 mph60%30.36 "HgN/A
11:00 AM66 °FPartly sunny.16 mph73%30.39 "HgN/A
10:00 AM64 °FBroken clouds.13 mph78%30.39 "HgN/A
9:00 AM63 °FPartly sunny.8 mph83%30.36 "HgN/A
8:00 AM59 °FBroken clouds.7 mph88%30.33 "HgN/A
7:00 AM57 °FSunny.6 mph94%30.33 "Hg10 mi
Weather by CustomWeather, © 2014

See weather overviewHow to use our weather pages